Regional Weather Roundup
Issued by NWS Jackson, KY

Home | Current Version | Previous Version | Graphics & Text | Print | Product List | Glossary On
Versions: 1 2 3 4 5 6 7 8 9 10 11 12 13 14 15 16 17 18 19 20 21 22 23 24 25 26 27 28 29 30 31 32 33 34 35 36 37 38 39 40 41 42 43 44 45 46 47 48 49 50
848
ASUS43 KJKL 091110
RWRJKL

EAST KENTUCKY HOURLY WEATHER ROUNDUP
NATIONAL WEATHER SERVICE JACKSON KY
600 AM EST FRI DEC 09 2016

NOTE: "FAIR" INDICATES FEW OR NO CLOUDS BELOW 12,000 FEET WITH
NO SIGNIFICANT WEATHER AND/OR OBSTRUCTIONS TO VISIBILITY.

* THESE REPORTS ARE NOT UNDER NWS QUALITY CONTROL AND MAY NOT
  REPORT WEATHER SUCH AS PRECIPITATION AND FOG.

KYZ079-080-083-085-087-088-110-112-115-119-120-091200
...EASTERN KENTUCKY...

CITY           SKY/WX    TMP DP  RH WIND       PRES   REMARKS
JACKSON        LGT SNOW  21  15  78 NW3       30.45R
LONDON         CLOUDY    22  12  65 NW9       30.49R WCI  12
SOMERSET*      CLOUDY    23  12  63 N6        30.53R WCI  16
MONTICELLO*    FLURRIES  24  16  71 N10       30.53R WCI  14
MIDDLESBORO*   CLOUDY    24  15  67 CALM      30.48R
HARLAN APT*    CLOUDY    23  12  63 W5        30.45R WCI  17
PIKE CO APT*   FLURRIES  21  15  78 W7        30.43R WCI  13
BIG SANDY APT* CLOUDY    23  12  62 NW6       30.46R WCI  15
MOREHEAD APT*  MIX PCPN  23  14  68 NW7G13    30.50R WCI  15
ASHLAND*       CLOUDY    27  18  69 NW7       30.47R WCI  19
$$

KYZ035-036-041-042-044-050-067-078-099-091200
...CENTRAL KENTUCKY...

CITY           SKY/WX    TMP DP  RH WIND       PRES   REMARKS
MT STERLING*   FLURRIES  21  18  86 N6        30.51R WCI  14
FLEMING/MASON* CLOUDY    21  15  76 W9        30.50R WCI  11
DANVILLE*      FLURRIES  23  18  80 NW5       30.52R WCI  17
LEXINGTON      FLURRIES  21  12  68 W13       30.51R WCI   9
FRANKFORT      FLURRIES  22  12  65 W6        30.52R WCI  14
LOUISVILLE     FLURRIES  24  11  57 NW9       30.55R WCI  14
LEBANON*       CLOUDY    23  14  68 W5        30.53R WCI  17
GLASGOW*       CLOUDY    24  16  70 NW6       30.54S WCI  17
BOWLING GREEN  CLOUDY    26  13  57 VRB6      30.57R WCI  19
$$

KYZ091>093-OHZ055-061-077-WVZ005-015-034-035-042-091200
...SOUTHERN OHIO/WEST VIRGINIA...

CITY           SKY/WX    TMP DP  RH WIND       PRES   REMARKS
COVINGTON      FLURRIES  22  14  71 W13       30.48R WCI  10
COLUMBUS       FLURRIES  21  16  81 W12       30.42R WCI   9
DAYTON         PTCLDY    18  13  80 W10       30.44R WCI   6
WILMINGTON     CLEAR     18  13  80 W10       30.44R WCI   6
HUNTINGTON     CLOUDY    24  15  68 W8        30.46R WCI  15
CHARLESTON     CLOUDY    24  13  62 W12G18    30.43R WCI  13
PINEVILLE*     LGT SNOW  23  15  73 MISG      30.42R
BECKLEY        CLOUDY    17  10  74 NW10      30.31R WCI   5
BLUEFIELD      LGT SNOW  18  12  77 NW10G21   30.27R WCI   6
LOGAN CO APT*  LGT SNOW  21  18  86 CALM      30.40R
$$

VAZ002-007-008-TNZ017-027-036-066-071-091200
...SOUTHWEST VIRGINIA/EAST TENNESSEE...

CITY           SKY/WX    TMP DP  RH WIND       PRES   REMARKS
WISE*          FLURRIES  19  14  79 NW8       30.34R WCI   9
JONESVILLE*    CLOUDY    25  16  68 NW3       30.47R
ABINGDON*      FLURRIES  26  15  63 NW8       30.35R WCI  17
BRISTOL        CLOUDY    26  15  63 W8        30.39R WCI  18
MORRISTOWN*    CLOUDY    27  16  63 NW8       30.43R WCI  18
SEVIERVILLE*   CLOUDY    25  16  68 CALM      30.46R
KNOXVILLE      PTCLDY    26  16  65 N3        30.46R
OAK RIDGE      CLEAR     26  13  57 N6        30.49R WCI  19
CROSSVILLE     CLOUDY    20  13  74 NW7G17    30.43R WCI  11
NASHVILLE      CLOUDY    26  15  63 NW6       30.56R WCI  19
$$

...KEY TO REMARKS...
VSB - VISIBILITY IN MILES
WCI - WIND CHILL INDEX
HX  - HEAT INDEX

$$




USA.gov is the U.S. government's official web portal to all federal, state and local government web resources and services.